Miscellaneous Local Product
Issued by NWS Hastings, NE

Home | Current Version | Previous Version | Graphics & Text | Print | Product List | Glossary Off
Versions: 1 2 3 4 5 6 7 8 9 10 11 12 13 14 15 16 17 18 19 20 21 22 23 24 25 26 27 28 29 30 31 32 33 34 35 36 37 38 39 40 41 42 43 44 45 46 47 48 49 50

000
AXUS43 KGID 010602
MISGRI

GID CWA HOURLY WEATHER ROUNDUP
NATIONAL WEATHER SERVICE HASTINGS NE
100 AM CDT SAT NOV 01 2014

NOTE: "FAIR" INDICATES FEW OR NO CLOUDS BELOW 12,000 FEET WITH NO
SIGNIFICANT WEATHER AND/OR OBSTRUCTIONS TO VISIBILITY.

...SOUTH CENTRAL NEBRASKA...

CITY           SKY/WX    TMP DP  RH WIND       PRES   REMARKS
GRAND ISLAND   PTCLDY    31  16  54 SE9       30.38F WCI  23
HASTINGS       CLEAR     31  14  49 S10       30.37F WCI  22
KEARNEY        CLEAR     28  16  59 SE12      30.33F WCI  18
ORD            PTCLDY    30  14  51 SE10      30.32F WCI  21
YORK           MOCLDY    30  18  59 S6        30.41S WCI  24
AURORA         PTCLDY    28  17  63 SE6       30.39S WCI  21
LEXINGTON      CLEAR     32  18  56 SE10      30.30F WCI  24
HOLDREGE       CLEAR     31  16  53 SE12      30.31F WCI  22
HEBRON         MOCLDY    24  15  71 CALM      30.42S

...NEBRASKA PANHANDLE...

CITY           SKY/WX    TMP DP  RH WIND       PRES   REMARKS
CHADRON        CLEAR     43  26  51 S25G35    29.94F
ALLIANCE       PTCLDY    35  21  56 S23G32    30.04F WCI  23
SCOTTSBLUFF    CLEAR     36  29  75 E12       30.02F WCI  28
SIDNEY         PTCLDY    35  23  61 S14G23    30.08F WCI  26

...WESTERN AND NORTH CENTRAL NEBRASKA...

CITY           SKY/WX    TMP DP  RH WIND       PRES   REMARKS
VALENTINE      PTCLDY    34  13  41 S15       30.16F WCI  24
AINSWORTH      PTCLDY    32  14  48 S15G21    30.21F WCI  21
ONEILL         PTCLDY    31  17  55 SE14      30.31F WCI  21
BROKEN BOW       N/A    N/A N/A N/A MISG      30.28F
IMPERIAL       PTCLDY    30  14  51 SE12      30.19F WCI  20
NORTH PLATTE   CLEAR     33  14  45 SE13      30.23F WCI  24
MCCOOK         CLEAR     30  15  53 E9        30.27F WCI  22

...EASTERN NEBRASKA...

CITY           SKY/WX    TMP DP  RH WIND       PRES   REMARKS
NORFOLK        MOCLDY    31  18  58 SE10      30.39F WCI  22
SO SIOUX CITY  PTCLDY    25  19  78 SE7       30.45F WCI  17
TEKAMAH        PTCLDY    26  18  71 SE8       30.46F WCI  18
ALBION         PTCLDY    27  17  66 SE7       30.37F WCI  20
OMAHA EPPLEY   MOCLDY    32  19  58 SE5       30.48S WCI  27
OFFUTT AFB     PTCLDY    28  21  75 CALM      30.46S
MILLARD        PTCLDY    31  24  78 CALM      30.47R
LINCOLN        PTCLDY    27  19  72 CALM      30.45F
NEBRASKA CITY  MOCLDY    32  17  53 CALM      30.46S
BEATRICE       PTCLDY    29  19  64 CALM      30.44S
FALLS CITY     PTCLDY    30  21  69 CALM      30.46F

...NORTHERN KANSAS...

CITY           SKY/WX    TMP DP  RH WIND       PRES   REMARKS
GOODLAND       PTCLDY    32  19  58 S23       30.17F WCI  19
HILL CITY      PTCLDY    30  17  58 E8        30.32F WCI  22
NORTON         CLEAR     34  12  40 SE9       30.29F WCI  26
PHILLIPSBURG   CLEAR     30  19  64 E6        30.35F WCI  24
SMITH CENTER   CLEAR     27  18  69 E9        30.37F WCI  17
BELOIT         CLEAR     30  19  64 E6        30.40F WCI  24
HAYS           CLEAR     30  16  55 SE10      30.34F WCI  21
RUSSELL        PTCLDY    32  19  58 SE13      30.36F WCI  22
CONCORDIA      PTCLDY    28  18  66 SE5       30.42S WCI  23
SALINA         PTCLDY    29  19  66 SE5       30.44S WCI  24
TOPEKA         PTCLDY    29  23  78 CALM      30.47S



USA.gov is the U.S. government's official web portal to all federal, state and local government web resources and services.